Location: Huntsville
(41.2590°N, 111.7678°W)
Time: 08:23:58
(UTC+00:00)

Envisat - Pass Details

Date: 06 December 2021
Orbit: 764 x 766 km, 98.2° (Epoch: 18 January)

Event Time Altitude Azimuth Distance (km) Brightness Sun altitude
Rises 12:38:53 0° 11° (N) 3,241 6.2 -21.8°
Reaches altitude 10° 12:41:12 10° 9° (N) 2,311 5.5 -21.4°
Maximum altitude 12:46:17 75° 286° (WNW) 795 2.8 -20.4°
Drops below altitude 10° 12:51:20 10° 201° (SSW) 2,293 5.4 -19.5°
Sets 12:53:37 0° 200° (SSW) 3,215 6.2 -19.1°
